Regional Weather Roundup
Issued by NWS

Home | Current Version | Previous Version | Text Only | Print | Product List | Glossary On
Versions: 1 2 3 4 5 6 7 8 9 10 11 12 13 14 15 16 17 18 19 20 21 22 23 24 25 26 27 28 29 30 31 32 33 34 35 36 37 38 39 40 41 42 43 44 45 46 47 48 49 50
000
ASCA42 TJSJ 250110
RWRPR
PUERTO RICO/U.S. VIRGIN ISLANDS HOURLY WEATHER ROUNDUP
NATIONAL WEATHER SERVICE SAN JUAN PR
900 PM AST THU MAY 24 2018

PRZ001>002-007>008-010-250200-
PUERTO RICO

CITY           SKY/WX    TMP DP  RH WIND       PRES   REMARKS
SAN JUAN LMM   PTCLDY    79  75  89 E14       30.05R
AGUADILLA      CLEAR     75  70  83 E5        30.07R
CEIBA          PTCLDY    81  75  83 E10       30.07
$$

VIZ001>002-250200-
U.S. VIRGIN ISLANDS

CITY           SKY/WX    TMP DP  RH WIND       PRES   REMARKS
CHARLOTTE AMA  CLEAR    N/A N/A N/A E9        30.06
$$

HOURLY WEATHER ROUNDUP FOR THE NEWS MEDIA

CITY           SKY/WX    TMP DP  RH WIND       PRES   REMARKS
ORLANDO        FAIR      80  70  71 E7        30.06R
NEW YORK       FAIR      65  51  60 S18       30.09R
NEWARK         FAIR      75  44  33 S13       30.06R
CHICAGO        MOCLDY    79  53  40 SE9       30.02F
HARTFORD       MOCLDY    52  51  97 S9        30.12R
BOSTON         FAIR      59  47  64 SW15      30.08R
DALLAS         PTCLDY    88  66  48 S8        29.97S HX  90
PHILADELPHIA   FAIR      72  48  42 S10       30.11R
LOS ANGELES    PTSUNNY   63  55  75 W14       30.06S
WASHINGTON DC  FAIR      69  55  60 S3        30.13R


USA.gov is the U.S. government's official web portal to all federal, state and local government web resources and services.